Weather History for Clemson, SC

Change the Weather History Date:

Sunday, November 24, 2013

  Actual Average Record
Temperature  
Mean Temperature 40 °F -  
Max Temperature 46 °F 60 °F 76 °F (1973)
Min Temperature 33 °F 37 °F 17 °F (1937)
Degree Days  
Heating Degree Days 26    
Moisture  
Dew Point 12 °F    
Average Humidity 36    
Maximum Humidity 53    
Minimum Humidity 16    
Precipitation  
Precipitation 0.00 in - - ()
Sea Level Pressure  
Sea Level Pressure 30.39 in    
Wind  
Wind Speed 4 mph (ENE)    
Max Wind Speed 9 mph    
Max Gust Speed -    
Visibility 10 miles    
Events      
Averages and records for this station are not official NWS values.
T = Trace of Precipitation, MM = Missing Value Source: NWS Daily Summary

Daily Weather History Graph

Daily Weather History Graph

Search for Another Location

Airport:

Trip Planner

Search our weather history database for the weather conditions in past years. The results will help you decide how hot, cold, wet, or windy it might be!

Date:

Astronomy

Nov. 24, 2013 Rise Set
Actual Time 7:14 AM EST 5:22 PM EST
Civil Twilight 6:46 AM EST 5:49 PM EST
Nautical Twilight 6:16 AM EST 6:20 PM EST
Astronomical Twilight 5:45 AM EST 6:50 PM EST
Moon 11:39 PM EST (11/24) 12:08 PM EST (11/24)
Length of Visible Light 11h 02m
Length of Day
10h 08m
Waning Gibbous, 61% of the Moon is Illuminated
Nov 24
Waning Gibbous
Nov 25
Last Quarter
Dec 2
New
Dec 9
First Quarter
Dec 17
Full

Hourly Weather History & Observations

Time (EST) Temp. Windchill Dew Point Humidity Pressure Visibility Wind Dir Wind Speed Gust Speed Precip Events Conditions
12:54 AM 43.0 °F 40.3 °F 21.0 °F 42% 30.21 in 10.0 mi North 4.6 mph - N/A   Clear
1:54 AM 39.9 °F - 24.1 °F 53% 30.23 in 10.0 mi Calm Calm - N/A   Clear
2:54 AM 42.1 °F 37.7 °F 19.9 °F 41% 30.25 in 10.0 mi North 6.9 mph - N/A   Clear
3:54 AM 39.9 °F 37.8 °F 23.0 °F 51% 30.27 in 10.0 mi ENE 3.5 mph - N/A   Clear
4:54 AM 37.0 °F 31.6 °F 19.0 °F 48% 30.30 in 10.0 mi ENE 6.9 mph - N/A   Clear
5:54 AM 35.1 °F 30.1 °F 19.0 °F 52% 30.33 in 10.0 mi ENE 5.8 mph - N/A   Clear
6:54 AM 33.1 °F 30.0 °F 17.1 °F 52% 30.36 in 10.0 mi NNE 3.5 mph - N/A   Clear
7:54 AM 33.1 °F 27.7 °F 14.0 °F 46% 30.40 in 10.0 mi ENE 5.8 mph - N/A   Clear
8:54 AM 35.1 °F 27.9 °F 12.0 °F 39% 30.43 in 10.0 mi NNE 9.2 mph - N/A   Clear
9:54 AM 37.9 °F 33.5 °F 12.0 °F 35% 30.46 in 10.0 mi ENE 5.8 mph - N/A   Clear
10:54 AM 39.9 °F 36.7 °F 9.0 °F 28% 30.46 in 10.0 mi East 4.6 mph - N/A   Clear
11:54 AM 43.0 °F 38.2 °F 8.1 °F 24% 30.43 in 10.0 mi NNE 8.1 mph - N/A   Clear
12:54 PM 44.1 °F - 3.9 °F 19% 30.41 in 10.0 mi Calm Calm - N/A   Clear
1:54 PM 45.0 °F 41.8 °F 6.1 °F 20% 30.39 in 10.0 mi SE 5.8 mph - N/A   Clear
2:54 PM 46.9 °F - 3.0 °F 16% 30.38 in 10.0 mi East 5.8 mph - N/A   Clear
3:54 PM 46.0 °F 43.1 °F 3.0 °F 17% 30.39 in 10.0 mi ENE 5.8 mph - N/A   Clear
4:54 PM 44.1 °F 41.5 °F 3.9 °F 19% 30.40 in 10.0 mi East 4.6 mph - N/A   Clear
5:54 PM 41.0 °F 38.0 °F 7.0 °F 25% 30.43 in 10.0 mi East 4.6 mph - N/A   Clear
6:54 PM 39.0 °F 36.8 °F 10.0 °F 30% 30.46 in 10.0 mi East 3.5 mph - N/A   Clear
7:54 PM 37.9 °F 35.5 °F 12.0 °F 35% 30.49 in 10.0 mi East 3.5 mph - N/A   Clear
8:54 PM 36.0 °F - 12.9 °F 39% 30.48 in 10.0 mi Calm Calm - N/A   Clear
9:54 PM 35.1 °F 31.0 °F 15.1 °F 44% 30.47 in 10.0 mi ENE 4.6 mph - N/A   Clear
10:54 PM 35.1 °F - 10.0 °F 35% 30.51 in 10.0 mi Calm Calm - N/A   Clear
11:54 PM 34.0 °F 31.0 °F 12.9 °F 42% 30.52 in 10.0 mi ENE 3.5 mph - N/A   Clear